Time,TemperatureF,DewpointF,PressureIn,WindDirection,WindDirectionDegrees,WindSpeedMPH,WindSpeedGustMPH,Humidity,HourlyPrecipIn,Conditions,Clouds,dailyrainin,SoftwareType,DateUTC
2013-07-03 00:07:00,42.9,37.0,29.94,ESE,123,0.0,1.0,81,0.00,,,0.00,weatherlink.com 1.10,2013-07-03 06:07:00,
2013-07-03 00:22:00,42.5,37.0,29.93,SE,127,0.0,1.0,82,0.00,,,0.00,weatherlink.com 1.10,2013-07-03 06:22:00,
2013-07-03 00:38:00,42.2,37.0,29.93,SE,126,0.0,1.0,83,0.00,,,0.00,weatherlink.com 1.10,2013-07-03 06:38:00,
2013-07-03 01:08:00,41.6,37.0,29.93,SE,127,1.0,2.0,83,0.00,,,0.00,weatherlink.com 1.10,2013-07-03 07:08:00,
2013-07-03 01:23:00,41.4,37.0,29.93,SE,126,0.0,2.0,85,0.00,,,0.00,weatherlink.com 1.10,2013-07-03 07:23:00,
2013-07-03 01:53:00,40.3,37.0,29.92,SE,128,0.0,1.0,87,0.00,,,0.00,weatherlink.com 1.10,2013-07-03 07:53:00,
2013-07-03 02:08:00,40.3,37.0,29.92,ESE,115,2.0,3.0,86,0.00,,,0.00,weatherlink.com 1.10,2013-07-03 08:08:00,
2013-07-03 02:23:00,40.2,36.0,29.91,ESE,115,0.0,1.0,86,0.00,,,0.00,weatherlink.com 1.10,2013-07-03 08:23:00,
2013-07-03 02:38:00,39.7,36.0,29.91,ESE,115,1.0,1.0,87,0.00,,,0.00,weatherlink.com 1.10,2013-07-03 08:38:00,
2013-07-03 02:53:00,39.1,36.0,29.90,ESE,116,0.0,0.0,87,0.00,,,0.00,weatherlink.com 1.10,2013-07-03 08:53:00,
2013-07-03 03:08:00,38.5,35.0,29.90,ESE,116,0.0,0.0,88,0.00,,,0.00,weatherlink.com 1.10,2013-07-03 09:08:00,
2013-07-03 03:23:00,38.1,35.0,29.91,ESE,116,0.0,0.0,88,0.00,,,0.00,weatherlink.com 1.10,2013-07-03 09:23:00,
2013-07-03 03:38:00,37.5,34.0,29.90,ESE,116,0.0,1.0,88,0.00,,,0.00,weatherlink.com 1.10,2013-07-03 09:38:00,
2013-07-03 03:53:00,37.1,34.0,29.91,ESE,116,0.0,1.0,88,0.00,,,0.00,weatherlink.com 1.10,2013-07-03 09:53:00,
2013-07-03 04:23:00,35.7,33.0,29.90,ESE,116,0.0,0.0,89,0.00,,,0.00,weatherlink.com 1.10,2013-07-03 10:23:00,
2013-07-03 04:38:00,35.6,32.0,29.91,ESE,116,0.0,0.0,88,0.00,,,0.00,weatherlink.com 1.10,2013-07-03 10:38:00,
2013-07-03 04:53:00,35.3,32.0,29.91,ESE,116,0.0,1.0,89,0.00,,,0.00,weatherlink.com 1.10,2013-07-03 10:53:00,
2013-07-03 05:08:00,35.4,33.0,29.91,ESE,116,0.0,0.0,89,0.00,,,0.00,weatherlink.com 1.10,2013-07-03 11:08:00,
2013-07-03 05:23:00,35.2,32.0,29.92,SE,141,0.0,1.0,89,0.00,,,0.00,weatherlink.com 1.10,2013-07-03 11:23:00,
2013-07-03 05:38:00,35.6,32.0,29.92,SE,141,0.0,1.0,88,0.00,,,0.00,weatherlink.com 1.10,2013-07-03 11:38:00,
2013-07-03 05:53:00,36.0,33.0,29.92,SE,141,0.0,0.0,90,0.00,,,0.00,weatherlink.com 1.10,2013-07-03 11:53:00,
2013-07-03 06:09:00,36.5,34.0,29.92,SE,141,0.0,0.0,89,0.00,,,0.00,weatherlink.com 1.10,2013-07-03 12:09:00,
2013-07-03 06:25:00,37.3,34.0,29.93,SE,141,0.0,0.0,88,0.00,,,0.00,weatherlink.com 1.10,2013-07-03 12:25:00,
2013-07-03 06:54:00,37.8,35.0,29.93,SE,141,0.0,0.0,88,0.00,,,0.00,weatherlink.com 1.10,2013-07-03 12:54:00,
2013-07-03 07:09:00,38.0,35.0,29.93,SE,141,0.0,0.0,89,0.00,,,0.00,weatherlink.com 1.10,2013-07-03 13:09:00,
2013-07-03 07:39:00,39.3,36.0,29.93,SE,138,1.0,1.0,88,0.00,,,0.00,weatherlink.com 1.10,2013-07-03 13:39:00,
2013-07-03 07:54:00,40.9,37.0,29.93,SE,135,0.0,2.0,86,0.00,,,0.00,weatherlink.com 1.10,2013-07-03 13:54:00,
2013-07-03 08:09:00,43.7,38.0,29.92,SE,141,2.0,3.0,80,0.00,,,0.00,weatherlink.com 1.10,2013-07-03 14:09:00,
2013-07-03 08:24:00,48.8,39.0,29.92,ESE,115,2.0,8.0,68,0.00,,,0.00,weatherlink.com 1.10,2013-07-03 14:24:00,
2013-07-03 08:39:00,50.8,38.0,29.91,WSW,243,2.0,6.0,61,0.00,,,0.00,weatherlink.com 1.10,2013-07-03 14:39:00,
2013-07-03 08:54:00,52.4,37.0,29.91,WNW,300,6.0,9.0,57,0.00,,,0.00,weatherlink.com 1.10,2013-07-03 14:54:00,
2013-07-03 09:09:00,53.7,37.0,29.90,NNW,330,7.0,10.0,54,0.00,,,0.00,weatherlink.com 1.10,2013-07-03 15:09:00,
2013-07-03 09:24:00,55.0,36.0,29.89,SE,140,1.0,9.0,50,0.00,,,0.00,weatherlink.com 1.10,2013-07-03 15:24:00,
2013-07-03 09:55:00,58.2,36.0,29.88,WSW,257,7.0,13.0,44,0.00,,,0.00,weatherlink.com 1.10,2013-07-03 15:55:00,
2013-07-03 10:10:00,59.3,35.0,29.87,WSW,250,1.0,14.0,40,0.00,,,0.00,weatherlink.com 1.10,2013-07-03 16:10:00,
2013-07-03 10:25:00,60.3,35.0,29.87,NNW,338,2.0,15.0,39,0.00,,,0.00,weatherlink.com 1.10,2013-07-03 16:25:00,
2013-07-03 10:40:00,60.5,35.0,29.87,West,278,1.0,11.0,39,0.00,,,0.00,weatherlink.com 1.10,2013-07-03 16:40:00,
2013-07-03 10:55:00,61.8,34.0,29.87,SE,140,2.0,12.0,36,0.00,,,0.00,weatherlink.com 1.10,2013-07-03 16:55:00,
2013-07-03 11:10:00,62.4,34.0,29.87,WSW,240,9.0,12.0,35,0.00,,,0.00,weatherlink.com 1.10,2013-07-03 17:10:00,
2013-07-03 11:25:00,63.1,33.0,29.87,WSW,258,7.0,13.0,32,0.00,,,0.00,weatherlink.com 1.10,2013-07-03 17:25:00,
2013-07-03 11:40:00,64.2,32.0,29.87,South,174,1.0,10.0,30,0.00,,,0.00,weatherlink.com 1.10,2013-07-03 17:40:00,
2013-07-03 11:55:00,64.3,30.0,29.87,WNW,298,5.0,14.0,28,0.00,,,0.00,weatherlink.com 1.10,2013-07-03 17:55:00,
2013-07-03 12:10:00,65.0,31.0,29.86,SW,223,8.0,12.0,28,0.00,,,0.00,weatherlink.com 1.10,2013-07-03 18:10:00,
2013-07-03 12:25:00,65.0,31.0,29.86,West,259,0.0,14.0,28,0.00,,,0.00,weatherlink.com 1.10,2013-07-03 18:25:00,
2013-07-03 12:55:00,66.5,30.0,29.85,West,272,2.0,13.0,26,0.00,,,0.00,weatherlink.com 1.10,2013-07-03 18:55:00,
2013-07-03 13:25:00,68.7,31.0,29.84,West,274,4.0,11.0,25,0.00,,,0.00,weatherlink.com 1.10,2013-07-03 19:25:00,
2013-07-03 13:40:00,69.1,32.0,29.83,SSW,192,6.0,14.0,25,0.00,,,0.00,weatherlink.com 1.10,2013-07-03 19:40:00,
2013-07-03 14:10:00,67.1,26.0,29.81,West,268,1.0,19.0,21,0.00,,,0.00,weatherlink.com 1.10,2013-07-03 20:10:00,
2013-07-03 14:25:00,64.2,29.0,29.82,WNW,293,0.0,10.0,27,0.00,,,0.00,weatherlink.com 1.10,2013-07-03 20:25:00,
2013-07-03 14:56:00,65.8,30.0,29.81,WSW,245,0.0,13.0,26,0.00,,,0.00,weatherlink.com 1.10,2013-07-03 20:56:00,
2013-07-03 15:11:00,64.0,31.0,29.81,South,172,1.0,13.0,29,0.00,,,0.00,weatherlink.com 1.10,2013-07-03 21:11:00,
2013-07-03 15:41:00,62.2,32.0,29.82,SW,219,6.0,10.0,32,0.00,,,0.00,weatherlink.com 1.10,2013-07-03 21:41:00,
2013-07-03 15:56:00,64.1,34.0,29.80,South,191,0.0,4.0,33,0.00,,,0.00,weatherlink.com 1.10,2013-07-03 21:56:00,
2013-07-03 16:11:00,65.8,33.0,29.79,SW,218,1.0,9.0,30,0.00,,,0.00,weatherlink.com 1.10,2013-07-03 22:11:00,
2013-07-03 16:26:00,65.8,33.0,29.79,West,266,2.0,6.0,29,0.00,,,0.00,weatherlink.com 1.10,2013-07-03 22:26:00,
2013-07-03 16:41:00,64.2,34.0,29.79,WSW,242,0.0,5.0,32,0.00,,,0.00,weatherlink.com 1.10,2013-07-03 22:41:00,
2013-07-03 16:56:00,62.4,31.0,29.78,West,264,3.0,5.0,31,0.00,,,0.00,weatherlink.com 1.10,2013-07-03 22:56:00,
2013-07-03 17:11:00,60.8,33.0,29.77,West,265,1.0,7.0,35,0.00,,,0.00,weatherlink.com 1.10,2013-07-03 23:11:00,
2013-07-03 17:26:00,60.7,34.0,29.78,SSE,158,0.0,7.0,37,0.00,,,0.00,weatherlink.com 1.10,2013-07-03 23:26:00,
2013-07-03 17:41:00,60.5,34.0,29.79,ESE,114,1.0,10.0,37,0.00,,,0.00,weatherlink.com 1.10,2013-07-03 23:41:00,
2013-07-03 18:12:00,58.2,33.0,29.82,WSW,244,4.0,11.0,39,0.00,,,0.00,weatherlink.com 1.10,2013-07-04 00:12:00,
2013-07-03 18:26:00,56.5,35.0,29.82,WNW,298,3.0,15.0,44,0.00,,,0.00,weatherlink.com 1.10,2013-07-04 00:26:00,
2013-07-03 18:41:00,54.5,38.0,29.84,West,262,2.0,15.0,54,0.00,,,0.00,weatherlink.com 1.10,2013-07-04 00:41:00,
2013-07-03 20:56:00,48.3,38.0,29.84,West,266,0.0,0.0,67,0.00,,,0.00,weatherlink.com 1.10,2013-07-04 02:56:00,
2013-07-03 21:11:00,47.6,38.0,29.84,West,266,0.0,0.0,69,0.00,,,0.00,weatherlink.com 1.10,2013-07-04 03:11:00,
2013-07-03 21:26:00,46.7,37.0,29.85,West,266,0.0,0.0,70,0.00,,,0.00,weatherlink.com 1.10,2013-07-04 03:26:00,
2013-07-03 21:50:00,45.0,37.0,29.86,West,266,1.0,1.0,73,0.00,,,0.00,weatherlink.com 1.10,2013-07-04 03:50:00,
2013-07-03 22:05:00,45.0,37.0,29.86,West,266,0.0,0.0,73,0.00,,,0.00,weatherlink.com 1.10,2013-07-04 04:05:00,
2013-07-03 22:23:00,44.9,37.0,29.87,West,266,0.0,0.0,73,0.00,,,0.00,weatherlink.com 1.10,2013-07-04 04:23:00,
2013-07-03 22:35:00,44.5,37.0,29.88,West,266,0.0,0.0,74,0.00,,,0.00,weatherlink.com 1.10,2013-07-04 04:35:00,
2013-07-03 22:51:00,43.8,37.0,29.89,West,266,0.0,0.0,76,0.00,,,0.00,weatherlink.com 1.10,2013-07-04 04:51:00,
2013-07-03 23:05:00,43.1,37.0,29.89,West,266,0.0,0.0,78,0.00,,,0.00,weatherlink.com 1.10,2013-07-04 05:05:00,
2013-07-03 23:20:00,42.4,36.0,29.89,West,266,0.0,0.0,79,0.00,,,0.00,weatherlink.com 1.10,2013-07-04 05:20:00,
2013-07-03 23:36:00,41.7,36.0,29.89,West,266,0.0,0.0,80,0.00,,,0.00,weatherlink.com 1.10,2013-07-04 05:36:00,
2013-07-03 23:51:00,41.6,36.0,29.89,SE,127,0.0,1.0,81,0.00,,,0.00,weatherlink.com 1.10,2013-07-04 05:51:00,